Regional Weather Roundup
Issued by NWS

Home | Current Version | Previous Version | Text Only | Print | Product List | Glossary Off
Versions: 1 2 3 4 5 6 7 8 9 10 11 12 13 14 15 16 17 18 19 20 21 22 23 24 25 26 27 28 29 30 31 32 33 34 35 36 37 38 39 40 41 42 43 44 45 46 47 48 49 50

000
ASUS43 KMKX 291200
RWRWI

WISCONSIN REGIONAL WEATHER ROUNDUP
NATIONAL WEATHER SERVICE MILWAUKEE/SULLIVAN WI
700 AM CDT FRI JUL 29 2016

NOTE: "FAIR" INDICATES FEW OR NO CLOUDS BELOW 12,000 FEET WITH NO
SIGNIFICANT WEATHER AND/OR OBSTRUCTIONS TO VISIBILITY.

WIZ001-002-006>008-014>016-023>028-291300-
NORTHWEST WISCONSIN

CITY           SKY/WX    TMP DP  RH WIND       PRES   REMARKS
SUPERIOR ARPT  FOG       49  49 100 CALM      30.12S VSB 1/2
ASHLAND        SUNNY     51  50  96 W3        30.12S
6HR MIN TEMP:  43; 6HR MAX TEMP:  51;

HAYWARD        FOG       50  49  96 NE8       30.11S VSB 1/2
6HR MIN TEMP:  47; 6HR MAX TEMP:  54;

SIREN          NOT AVBL
CUMBERLAND     SUNNY     54  52  94 N3        30.10R
RICE LAKE      SUNNY     55  53  92 CALM      30.10R
CHETEK         SUNNY     58  53  84 NE5       30.08R
LADYSMITH      SUNNY     54  52  94 N3        30.10R
EAU CLAIRE     NOT AVBL
MENOMONIE      PTSUNNY   62  57  83 N6        30.06R
NEW RICHMOND   SUNNY     57  56  95 NE5       30.07S
OSCEOLA        SUNNY     55  55 100 CALM      30.11R
$$

WIZ003>005-009-010-017-018-291300-
NORTH CENTRAL WISCONSIN

CITY           SKY/WX    TMP DP  RH WIND       PRES   REMARKS
MANITOWISH WTR SUNNY     53  53 100 NE5       30.11S
ARBOR VITAE    SUNNY     55  53  93 N5        30.10S
WOODRUFF       SUNNY     55  53  93 N5        30.10S
RHINELANDER    SUNNY     53  50  89 N3        30.09S
6HR MIN TEMP:  48; 6HR MAX TEMP:  55;

EAGLE RIVER    SUNNY     47  47 100 CALM      30.10S
LAND O LAKES   SUNNY     47  47 100 CALM      30.11S
PHILLIPS       SUNNY     50  50 100 NE6       30.09S
TOMAHAWK       SUNNY     49  49  97 CALM      30.09R
MEDFORD        SUNNY     54  54 100 NE3       30.06R
MERRILL        SUNNY     52  51  96 CALM      30.08R
$$

WIZ029-030-035-036-043>047-291300-
CENTRAL WISCONSIN

CITY           SKY/WX    TMP DP  RH WIND       PRES   REMARKS
WAUSAU         PTSUNNY   59  52  77 N3        30.04R
6HR MIN TEMP:  57; 6HR MAX TEMP:  63;

MOSINEE        MOSUNNY   59  54  82 NE8       30.06R
MARSHFIELD     SUNNY     60  54  80 NE9       30.04R
6HR MIN TEMP:  59; 6HR MAX TEMP:  64;

STEVENS POINT  CLOUDY    56  54  92 NE8       30.04S
WAUPACA        CLOUDY    61  58  88 CALM      30.03R
WAUTOMA        CLOUDY    60  57  89 MISG      30.02S
6HR MIN TEMP:  58; 6HR MAX TEMP:  66; 6HR PCP:  1.11;

WISC RAPIDS    MOSUNNY   60  52  74 VRB7      30.05R
6HR MIN TEMP:  60; 6HR MAX TEMP:  65;

CAMP DOUGLAS   CLOUDY    61  55  82 NE7       30.01S
$$

WIZ011>013-019>022-031-037>040-048>050-291300-
NORTHEAST WISCONSIN

CITY           SKY/WX    TMP DP  RH WIND       PRES   REMARKS
ANTIGO         PTSUNNY   55  52  91 NE3       30.07R
SHAWANO        CLOUDY    62  56  81 NE7       30.05R
OCONTO         CLOUDY    59  59 100 N6        30.04R
STURGEON BAY   CLOUDY    65  63  93 E3        30.04S
6HR MIN TEMP:  63; 6HR MAX TEMP:  65;

GREEN BAY      CLOUDY    61  60  97 N8        30.02S
6HR MIN TEMP:  60; 6HR MAX TEMP:  61; 6HR PCP:  0.01;

MANITOWOC      CLOUDY    64  63  94 NE3       30.01R
APPLETON       CLOUDY    61  55  82 NE9       30.01R
CLINTONVILLE   CLOUDY    59  54  82 NE7       30.03R
OSHKOSH        CLOUDY    65  62  90 NE13      30.00S
6HR MIN TEMP:  64; 6HR MAX TEMP:  67; 6HR PCP:  0.02;

$$

WIZ032>034-041-042-053>061-291300-
SOUTHWEST WISCONSIN

CITY           SKY/WX    TMP DP  RH WIND       PRES   REMARKS
LA CROSSE      CLOUDY    65  58  78 N7        30.00R
6HR MIN TEMP:  65; 6HR MAX TEMP:  66;

SPARTA         CLOUDY    62  56  79 NE7       30.02R
VIROQUA        CLOUDY    62  62 100 NE5       30.00R
BOSCOBEL       CLOUDY    67  63  87 NE6       29.97R
6HR MIN TEMP:  67; 6HR MAX TEMP:  70; 6HR PCP: TRACE;

PRAIRIE DU CHI CLOUDY    65  62  87 CALM      29.96S
PLATTEVILLE    CLOUDY    66  65  96 NE9       29.97R
$$

WIZ056-057-062-063-064-067-068-291300-
SOUTH CENTRAL WISCONSIN

CITY           SKY/WX    TMP DP  RH WIND       PRES   REMARKS
REEDSBURG      CLOUDY    61  59  94 NE7       29.99S
BARABOO/DELLS  CLOUDY    60  57  91 NE6       30.00R
LONE ROCK      NOT AVBL
MINERAL POINT  CLOUDY    64  63  94 NE7       29.97S
MADISON        CLOUDY    64  62  93 NE7       29.97R
6HR MIN TEMP:  63; 6HR MAX TEMP:  67; 6HR PCP:  0.08;

MIDDLETON      CLOUDY    65  63  91 NE6       29.99R
WATERTOWN      CLOUDY    64  64 100 NE5       29.96S
MONROE         CLOUDY    64  61  88 NE9       29.96R
JANESVILLE     CLOUDY    68  66  94 NE6       29.95R
$$

WIZ051-052-058>065-066-070>072-291300-
SOUTHEAST WISCONSIN

CITY           SKY/WX    TMP DP  RH WIND       PRES   REMARKS
MILWAUKEE      CLOUDY    68  64  87 NE8       29.96R
6HR MIN TEMP:  67; 6HR MAX TEMP:  69;

WAUKESHA       CLOUDY    64  63  94 NE9       29.98S
MILWAUKEE/TIMM CLOUDY    66  61  82 NE9       29.98R
RACINE         CLOUDY    72  65  78 E7        29.97R
6HR MIN TEMP:  67; 6HR MAX TEMP:  72;

BURLINGTON     CLOUDY    68  66  93 NE3       29.95R
KENOSHA        CLOUDY    70  67  90 N3        29.95R
6HR MIN TEMP:  67; 6HR MAX TEMP:  70;

FOND DU LAC    CLOUDY    65  62  90 NE8       29.99F
6HR MIN TEMP:  64; 6HR MAX TEMP:  65; 6HR PCP:  0.31;

SHEBOYGAN      CLOUDY    66  64  93 NE9       29.99S
6HR MIN TEMP:  63; 6HR MAX TEMP:  66; 6HR PCP:  0.07;

WEST BEND      CLOUDY    64  63  94 NE6       29.98S
JUNEAU         CLOUDY    63  61  94 N6        29.99R
$$

LSZ147-162-291300-
LAKE SUPERIOR

STATION/POSITION TIME  TEMP    WIND        PRES    WAVE
                       AIR SEA DIR/SP/G            HT/PER
                 (UTC) (F)     (DEG/KT/KT) (MB)    (FT/S)
W MID LAKE BUOY  1050   61 60  350/  6/  6 1018.8S   0
DEVILS ISLAND    1100   62      20/  6/  6 1019.8R
SAXON HARBOR     1100   50     200/  5/  6 1019.3R
$$

LMZ867-665-643>646-291300-
LAKE MICHIGAN

STATION/POSITION TIME  TEMP    WIND        PRES    WAVE
                       AIR SEA DIR/SP/G            HT/PER
                 (UTC) (F)     (DEG/KT/KT) (MB)    (FT/S)
CHAMBERS ISLAND  1100   66      30/  7/ 10 1016.9S
N MID LAKE BUOY  1050   68 69  100/ 14/ 16 1015.9S   2/ 4
NORTHPORT PIER   1100   66     360/  3/  4 1016.9S
SISTER BAY       1106   63        CALM       N/A
ALGOMA LAKESHORE 1143          120/ 11/ 13   N/A
KEWAUNEE LAKESHO 1100   64      50/  7/ 10 1015.7S
SHEBOYGAN LAKESH 1100   61     350/ 13/ 13 1015.7R
PORT WASHINGTON  1100   67      30/  7/ 11 1015.6R
ATWATER BUOY     1100   64 62   10/ 14/ 16 1015.8R
MILWAUKEE LAKESH 1110   65     360/ 13/ 14   N/A
S MID LAKE BUOY  1050   72 75   70/ 16/ 19 1012.7S   3/ 6
KENOSHA   LAKESH 1100   71      60/ 10/ 12 1013.2F
$$

TC  - TEMPERATURE IN CELSIUS
VSB - VISIBILITY IN STATUTE MILES
WCI - WIND CHILL INDEX
HX  - HEAT INDEX





USA.gov is the U.S. government's official web portal to all federal, state and local government web resources and services.